Kitsissorsuit

KL  EN  DA
ASIAQ
Weather Now GREENLAND SURVEY
Updated [WGT/WGST] Temperature [°C] Wind [m/s] Air pressure [hPa] Relative humidity [%] Precipitation [mm]
Present Wind chill Speed Max
27.09 02:00-1,6-5,53,1 ⇖4,6102062n/a
27.09 01:00-1,3-4,12,1 ⇖2,6102063n/a
27.09 00:00-1,50,00,5 ⇖1,5102063n/a
26.09 23:00-1,40,01,0 ⇑1,0102062n/a
26.09 22:00-1,40,01,0 ⇑1,5101962n/a
26.09 21:00-1,4-3,41,5 ⇑1,5101960n/a
26.09 20:00-1,40,01,0 ⇑1,5101962n/a
26.09 19:00-0,80,00,5 ⇑1,0101956n/a
26.09 18:00-1,0-3,72,1 ⇖3,1101857n/a
26.09 17:00-1,1-4,93,1 ⇖4,1101855n/a
26.09 16:00-1,1-5,33,6 ⇖5,1101853n/a
26.09 15:00-1,2-5,03,1 ⇖4,1101855n/a
26.09 14:00-1,3-6,04,1 ⇖5,7101855n/a
26.09 13:00-1,2-5,84,1 ⇖5,1101853n/a
26.09 12:00-1,2-6,24,6 ⇖6,2101856n/a
26.09 11:00-1,2-6,24,6 ⇖6,2101854n/a
26.09 10:00-1,2-5,53,6 ⇐4,6101851n/a
26.09 09:00-1,4-6,44,6 ⇖6,2101755n/a
26.09 08:00-1,1-6,75,7 ⇐7,7101750n/a
26.09 07:00n/an/an/an/an/an/an/a
26.09 06:00-1,1-5,33,6 ⇙5,1101750n/a
26.09 05:00-1,4-6,14,1 ⇓5,1101758n/a
26.09 04:00-1,6-6,74,6 ⇙5,7101859n/a
26.09 03:00-1,9-5,93,1 ⇙4,1101847n/a
26.09 02:00-2,2-6,73,6 ⇙5,1101852n/a
Position: (74.0605555555,-57.723055555555)

[Back]